Time,TemperatureF,DewpointF,PressureIn,WindDirection,WindDirectionDegrees,WindSpeedMPH,WindSpeedGustMPH,Humidity,HourlyPrecipIn,Conditions,Clouds,dailyrainin,SoftwareType,DateUTC
2013-03-21 00:00:00,36.3,13.2,29.12,North,353,0.0,0.0,38,0.00,,,0.00,VWS V14.01,2013-03-21 04:00:00,
2013-03-21 00:05:00,36.3,13.2,29.12,North,0,0.0,3.1,38,0.00,,,0.00,VWS V14.01,2013-03-21 04:05:00,
2013-03-21 00:10:00,36.1,13.6,29.12,North,6,0.0,0.0,39,0.00,,,0.00,VWS V14.01,2013-03-21 04:10:00,
2013-03-21 00:15:00,35.8,13.3,29.12,ENE,74,2.2,2.2,39,0.00,,,0.00,VWS V14.01,2013-03-21 04:15:00,
2013-03-21 00:20:00,35.6,13.7,29.12,North,0,0.0,2.7,40,0.00,,,0.00,VWS V14.01,2013-03-21 04:20:00,
2013-03-21 00:25:00,35.4,13.5,29.12,NNE,22,0.0,2.2,40,0.00,,,0.00,VWS V14.01,2013-03-21 04:25:00,
2013-03-21 00:30:00,35.4,13.5,29.12,WNW,299,0.0,0.0,40,0.00,,,0.00,VWS V14.01,2013-03-21 04:30:00,
2013-03-21 00:35:00,35.1,13.2,29.12,NE,36,0.0,0.0,40,0.00,,,0.00,VWS V14.01,2013-03-21 04:35:00,
2013-03-21 00:40:00,35.1,12.6,29.12,North,0,0.0,0.0,39,0.00,,,0.00,VWS V14.01,2013-03-21 04:40:00,
2013-03-21 00:45:00,35.1,12.0,29.12,North,0,0.0,0.0,38,0.00,,,0.00,VWS V14.01,2013-03-21 04:45:00,
2013-03-21 00:50:00,35.1,12.0,29.12,North,0,3.1,3.1,38,0.00,,,0.00,VWS V14.01,2013-03-21 04:50:00,
2013-03-21 00:55:00,35.1,12.0,29.12,North,357,2.2,2.2,38,0.00,,,0.00,VWS V14.01,2013-03-21 04:55:00,
2013-03-21 01:00:00,34.9,11.9,29.12,North,1,0.0,0.0,38,0.00,,,0.00,VWS V14.01,2013-03-21 05:00:00,
2013-03-21 01:05:00,34.9,11.3,29.12,ENE,72,0.0,0.0,37,0.00,,,0.00,VWS V14.01,2013-03-21 05:05:00,
2013-03-21 01:10:00,34.9,11.3,29.12,North,10,0.0,0.0,37,0.00,,,0.00,VWS V14.01,2013-03-21 05:10:00,
2013-03-21 01:15:00,34.9,11.3,29.12,NNW,335,2.2,2.2,37,0.00,,,0.00,VWS V14.01,2013-03-21 05:15:00,
2013-03-21 01:20:00,34.9,11.3,29.12,ENE,70,2.2,2.2,37,0.00,,,0.00,VWS V14.01,2013-03-21 05:20:00,
2013-03-21 01:25:00,34.9,10.0,29.12,NE,44,2.2,2.7,35,0.00,,,0.00,VWS V14.01,2013-03-21 05:25:00,
2013-03-21 01:30:00,34.7,9.9,29.12,North,7,3.6,3.6,35,0.00,,,0.00,VWS V14.01,2013-03-21 05:30:00,
2013-03-21 01:35:00,34.5,9.1,29.12,East,87,2.2,2.2,34,0.00,,,0.00,VWS V14.01,2013-03-21 05:35:00,
2013-03-21 01:40:00,34.5,9.1,29.12,NNE,16,0.0,0.0,34,0.00,,,0.00,VWS V14.01,2013-03-21 05:40:00,
2013-03-21 01:45:00,34.5,9.1,29.12,North,357,0.0,0.0,34,0.00,,,0.00,VWS V14.01,2013-03-21 05:45:00,
2013-03-21 01:50:00,34.5,9.1,29.12,North,0,0.0,0.0,34,0.00,,,0.00,VWS V14.01,2013-03-21 05:50:00,
2013-03-21 01:55:00,34.5,8.4,29.12,NE,55,3.1,3.1,33,0.00,,,0.00,VWS V14.01,2013-03-21 05:55:00,
2013-03-21 02:00:00,34.5,8.4,29.12,NNE,14,0.0,0.0,33,0.00,,,0.00,VWS V14.01,2013-03-21 06:00:00,
2013-03-21 02:05:00,34.5,8.4,29.12,North,4,0.0,0.0,33,0.00,,,0.00,VWS V14.01,2013-03-21 06:05:00,
2013-03-21 02:10:00,34.5,8.4,29.12,North,8,0.0,0.0,33,0.00,,,0.00,VWS V14.01,2013-03-21 06:10:00,
2013-03-21 02:15:00,34.3,8.2,29.12,North,353,0.0,0.0,33,0.00,,,0.00,VWS V14.01,2013-03-21 06:15:00,
2013-03-21 02:20:00,34.3,7.6,29.12,NNW,331,2.2,2.2,32,0.00,,,0.00,VWS V14.01,2013-03-21 06:20:00,
2013-03-21 02:25:00,34.3,7.6,29.12,NNE,14,0.0,0.0,32,0.00,,,0.00,VWS V14.01,2013-03-21 06:25:00,
2013-03-21 02:30:00,34.2,7.4,29.12,NNE,17,0.0,2.2,32,0.00,,,0.00,VWS V14.01,2013-03-21 06:30:00,
2013-03-21 02:35:00,34.2,7.4,29.12,NE,37,0.0,0.0,32,0.00,,,0.00,VWS V14.01,2013-03-21 06:35:00,
2013-03-21 02:40:00,34.2,6.7,29.12,North,357,0.0,0.0,31,0.00,,,0.00,VWS V14.01,2013-03-21 06:40:00,
2013-03-21 02:45:00,34.2,6.7,29.12,NNW,343,0.0,0.0,31,0.00,,,0.00,VWS V14.01,2013-03-21 06:45:00,
2013-03-21 02:50:00,34.0,5.8,29.12,North,0,0.0,2.2,30,0.00,,,0.00,VWS V14.01,2013-03-21 06:50:00,
2013-03-21 02:55:00,33.8,5.7,29.12,NNE,17,0.0,0.0,30,0.00,,,0.00,VWS V14.01,2013-03-21 06:55:00,
2013-03-21 03:00:00,33.8,5.7,29.12,NE,35,0.0,0.0,30,0.00,,,0.00,VWS V14.01,2013-03-21 07:00:00,
2013-03-21 03:05:00,33.8,5.7,29.12,North,357,2.7,2.7,30,0.00,,,0.00,VWS V14.01,2013-03-21 07:05:00,
2013-03-21 03:10:00,33.6,5.5,29.12,North,10,0.0,2.2,30,0.00,,,0.00,VWS V14.01,2013-03-21 07:10:00,
2013-03-21 03:15:00,33.6,5.5,29.12,North,357,6.3,6.3,30,0.00,,,0.00,VWS V14.01,2013-03-21 07:15:00,
2013-03-21 03:20:00,33.4,5.3,29.12,North,357,2.2,2.7,30,0.00,,,0.00,VWS V14.01,2013-03-21 07:20:00,
2013-03-21 03:25:00,33.3,5.2,29.12,North,8,2.2,2.7,30,0.00,,,0.00,VWS V14.01,2013-03-21 07:25:00,
2013-03-21 03:30:00,33.3,5.2,29.12,North,5,0.0,2.7,30,0.00,,,0.00,VWS V14.01,2013-03-21 07:30:00,
2013-03-21 03:35:00,33.1,5.0,29.12,NNE,27,0.0,2.7,30,0.00,,,0.00,VWS V14.01,2013-03-21 07:35:00,
2013-03-21 03:40:00,32.9,5.6,29.12,NE,43,0.0,0.0,31,0.00,,,0.00,VWS V14.01,2013-03-21 07:40:00,
2013-03-21 03:45:00,32.9,5.6,29.12,North,8,0.0,3.1,31,0.00,,,0.00,VWS V14.01,2013-03-21 07:45:00,
2013-03-21 03:51:00,32.7,5.4,29.12,North,3,0.0,0.0,31,0.00,,,0.00,VWS V14.01,2013-03-21 07:51:00,
2013-03-21 03:56:00,32.7,5.4,29.12,North,9,0.0,0.0,31,0.00,,,0.00,VWS V14.01,2013-03-21 07:56:00,
2013-03-21 04:01:00,32.7,5.4,29.12,North,6,0.0,0.0,31,0.00,,,0.00,VWS V14.01,2013-03-21 08:01:00,
2013-03-21 04:06:00,32.9,5.6,29.09,North,6,0.0,0.0,31,0.00,,,0.00,VWS V14.01,2013-03-21 08:06:00,
2013-03-21 04:10:00,32.9,5.6,29.09,SW,235,2.2,2.2,31,0.00,,,0.00,VWS V14.01,2013-03-21 08:10:00,
2013-03-21 04:16:00,32.9,5.6,29.09,NNE,24,0.0,0.0,31,0.00,,,0.00,VWS V14.01,2013-03-21 08:16:00,
2013-03-21 04:21:00,32.7,6.1,29.09,NNE,19,0.0,0.0,32,0.00,,,0.00,VWS V14.01,2013-03-21 08:21:00,
2013-03-21 04:26:00,32.5,6.0,29.09,NNE,21,2.7,2.7,32,0.00,,,0.00,VWS V14.01,2013-03-21 08:26:00,
2013-03-21 04:31:00,32.5,6.0,29.09,North,8,0.0,2.2,32,0.00,,,0.00,VWS V14.01,2013-03-21 08:31:00,
2013-03-21 04:36:00,32.2,5.7,29.09,North,10,0.0,0.0,32,0.00,,,0.00,VWS V14.01,2013-03-21 08:36:00,
2013-03-21 04:41:00,32.2,5.7,29.09,North,6,0.0,0.0,32,0.00,,,0.00,VWS V14.01,2013-03-21 08:41:00,
2013-03-21 04:46:00,32.0,4.8,29.09,North,0,0.0,0.0,31,0.00,,,0.00,VWS V14.01,2013-03-21 08:46:00,
2013-03-21 04:51:00,31.6,4.5,29.09,NE,42,0.0,0.0,31,0.00,,,0.00,VWS V14.01,2013-03-21 08:51:00,
2013-03-21 04:56:00,31.3,4.2,29.09,ENE,61,0.0,3.1,31,0.00,,,0.00,VWS V14.01,2013-03-21 08:56:00,
2013-03-21 05:01:00,31.1,4.0,29.09,WNW,295,0.0,3.1,31,0.00,,,0.00,VWS V14.01,2013-03-21 09:01:00,
2013-03-21 05:06:00,30.9,3.8,29.09,NE,41,0.0,0.0,31,0.00,,,0.00,VWS V14.01,2013-03-21 09:06:00,
2013-03-21 05:11:00,30.7,3.7,29.09,North,357,0.0,0.0,31,0.00,,,0.00,VWS V14.01,2013-03-21 09:11:00,
2013-03-21 05:16:00,30.6,3.5,29.09,East,95,0.0,2.7,31,0.00,,,0.00,VWS V14.01,2013-03-21 09:16:00,
2013-03-21 05:21:00,30.6,3.5,29.09,North,6,2.2,2.7,31,0.00,,,0.00,VWS V14.01,2013-03-21 09:21:00,
2013-03-21 05:26:00,30.4,3.4,29.09,NE,36,0.0,0.0,31,0.00,,,0.00,VWS V14.01,2013-03-21 09:26:00,
2013-03-21 05:31:00,30.2,3.2,29.09,NNE,24,0.0,0.0,31,0.00,,,0.00,VWS V14.01,2013-03-21 09:31:00,
2013-03-21 05:36:00,30.2,3.2,29.09,NNE,32,0.0,0.0,31,0.00,,,0.00,VWS V14.01,2013-03-21 09:36:00,
2013-03-21 05:41:00,29.8,2.9,29.09,North,0,0.0,0.0,31,0.00,,,0.00,VWS V14.01,2013-03-21 09:41:00,
2013-03-21 05:46:00,29.7,2.7,29.09,NNE,29,0.0,0.0,31,0.00,,,0.00,VWS V14.01,2013-03-21 09:46:00,
2013-03-21 05:51:00,29.5,2.6,29.09,NNE,12,0.0,0.0,31,0.00,,,0.00,VWS V14.01,2013-03-21 09:51:00,
2013-03-21 05:56:00,29.5,3.3,29.09,North,5,0.0,0.0,32,0.00,,,0.00,VWS V14.01,2013-03-21 09:56:00,
2013-03-21 06:01:00,29.3,2.4,29.09,NNE,22,0.0,0.0,31,0.00,,,0.00,VWS V14.01,2013-03-21 10:01:00,
2013-03-21 06:06:00,29.5,2.6,29.12,North,357,0.0,0.0,31,0.00,,,0.00,VWS V14.01,2013-03-21 10:06:00,
2013-03-21 06:11:00,29.3,3.1,29.12,NNW,333,0.0,0.0,32,0.00,,,0.00,VWS V14.01,2013-03-21 10:11:00,
2013-03-21 06:16:00,29.3,2.4,29.12,North,1,0.0,0.0,31,0.00,,,0.00,VWS V14.01,2013-03-21 10:16:00,
2013-03-21 06:21:00,29.1,2.3,29.12,North,1,0.0,0.0,31,0.00,,,0.00,VWS V14.01,2013-03-21 10:21:00,
2013-03-21 06:26:00,29.1,2.3,29.12,North,1,0.0,0.0,31,0.00,,,0.00,VWS V14.01,2013-03-21 10:26:00,
2013-03-21 06:31:00,29.1,2.3,29.12,North,357,0.0,0.0,31,0.00,,,0.00,VWS V14.01,2013-03-21 10:31:00,
2013-03-21 06:36:00,28.9,2.1,29.12,NNW,342,0.0,0.0,31,0.00,,,0.00,VWS V14.01,2013-03-21 10:36:00,
2013-03-21 06:41:00,28.8,2.0,29.12,NNW,342,0.0,0.0,31,0.00,,,0.00,VWS V14.01,2013-03-21 10:41:00,
2013-03-21 06:46:00,28.6,1.8,29.12,North,0,0.0,0.0,31,0.00,,,0.00,VWS V14.01,2013-03-21 10:46:00,
2013-03-21 06:51:00,28.6,1.8,29.12,North,0,0.0,0.0,31,0.00,,,0.00,VWS V14.01,2013-03-21 10:51:00,
2013-03-21 06:56:00,28.4,1.6,29.12,North,0,0.0,0.0,31,0.00,,,0.00,VWS V14.01,2013-03-21 10:56:00,
2013-03-21 07:01:00,28.2,1.5,29.12,NW,306,0.0,0.0,31,0.00,,,0.00,VWS V14.01,2013-03-21 11:01:00,
2013-03-21 07:06:00,28.2,1.5,29.12,North,9,3.6,3.6,31,0.00,,,0.00,VWS V14.01,2013-03-21 11:06:00,
2013-03-21 07:11:00,28.2,1.5,29.12,North,10,0.0,0.0,31,0.00,,,0.00,VWS V14.01,2013-03-21 11:11:00,
2013-03-21 07:16:00,28.2,1.5,29.12,NNE,23,0.0,0.0,31,0.00,,,0.00,VWS V14.01,2013-03-21 11:16:00,
2013-03-21 07:21:00,28.0,1.3,29.12,North,357,0.0,0.0,31,0.00,,,0.00,VWS V14.01,2013-03-21 11:21:00,
2013-03-21 07:26:00,27.9,1.2,29.12,North,357,0.0,0.0,31,0.00,,,0.00,VWS V14.01,2013-03-21 11:26:00,
2013-03-21 07:31:00,27.9,1.2,29.12,North,357,0.0,0.0,31,0.00,,,0.00,VWS V14.01,2013-03-21 11:31:00,
2013-03-21 07:37:00,27.9,1.2,29.12,North,353,0.0,0.0,31,0.00,,,0.00,VWS V14.01,2013-03-21 11:37:00,
2013-03-21 07:42:00,27.9,1.2,29.12,NE,50,0.0,0.0,31,0.00,,,0.00,VWS V14.01,2013-03-21 11:42:00,
2013-03-21 07:47:00,27.9,1.2,29.12,NNW,341,0.0,0.0,31,0.00,,,0.00,VWS V14.01,2013-03-21 11:47:00,
2013-03-21 07:52:00,27.9,1.2,29.12,North,353,2.7,2.7,31,0.00,,,0.00,VWS V14.01,2013-03-21 11:52:00,
2013-03-21 07:57:00,27.9,1.2,29.12,NNE,19,0.0,0.0,31,0.00,,,0.00,VWS V14.01,2013-03-21 11:57:00,
2013-03-21 08:02:00,28.0,1.3,29.12,NE,36,0.0,0.0,31,0.00,,,0.00,VWS V14.01,2013-03-21 12:02:00,
2013-03-21 08:07:00,28.0,1.3,29.12,North,1,0.0,0.0,31,0.00,,,0.00,VWS V14.01,2013-03-21 12:07:00,
2013-03-21 08:12:00,28.2,1.5,29.12,NNE,33,0.0,0.0,31,0.00,,,0.00,VWS V14.01,2013-03-21 12:12:00,
2013-03-21 08:17:00,28.4,1.6,29.12,NE,37,0.0,0.0,31,0.00,,,0.00,VWS V14.01,2013-03-21 12:17:00,
2013-03-21 08:22:00,28.4,1.6,29.12,NNW,339,0.0,6.3,31,0.00,,,0.00,VWS V14.01,2013-03-21 12:22:00,
2013-03-21 08:28:00,28.6,1.1,29.12,North,2,0.0,2.2,30,0.00,,,0.00,VWS V14.01,2013-03-21 12:28:00,
2013-03-21 08:33:00,28.9,1.4,29.12,North,0,2.7,2.7,30,0.00,,,0.00,VWS V14.01,2013-03-21 12:33:00,
2013-03-21 08:38:00,28.8,1.2,29.12,NNW,327,3.1,5.4,30,0.00,,,0.00,VWS V14.01,2013-03-21 12:38:00,
2013-03-21 08:43:00,28.9,1.4,29.12,NE,36,3.6,3.6,30,0.00,,,0.00,VWS V14.01,2013-03-21 12:43:00,
2013-03-21 08:48:00,28.9,1.4,29.12,ESE,113,2.7,6.3,30,0.00,,,0.00,VWS V14.01,2013-03-21 12:48:00,
2013-03-21 08:53:00,28.8,1.2,29.12,NNW,339,2.2,3.6,30,0.00,,,0.00,VWS V14.01,2013-03-21 12:53:00,
2013-03-21 08:58:00,28.9,1.4,29.12,NW,322,2.2,4.0,30,0.00,,,0.00,VWS V14.01,2013-03-21 12:58:00,
2013-03-21 09:03:00,29.1,0.1,29.12,NW,311,10.1,10.1,28,0.00,,,0.00,VWS V14.01,2013-03-21 13:03:00,
2013-03-21 09:08:00,29.5,0.4,29.12,NNW,346,2.7,2.7,28,0.00,,,0.00,VWS V14.01,2013-03-21 13:08:00,
2013-03-21 09:13:00,30.2,1.0,29.12,NW,325,0.0,4.0,28,0.00,,,0.00,VWS V14.01,2013-03-21 13:13:00,
2013-03-21 09:18:00,30.6,1.4,29.12,NE,47,2.2,2.2,28,0.00,,,0.00,VWS V14.01,2013-03-21 13:18:00,
2013-03-21 09:23:00,30.9,1.7,29.12,North,353,2.7,3.6,28,0.00,,,0.00,VWS V14.01,2013-03-21 13:23:00,
2013-03-21 09:28:00,30.9,1.7,29.12,NE,41,0.0,3.6,28,0.00,,,0.00,VWS V14.01,2013-03-21 13:28:00,
2013-03-21 09:33:00,31.5,2.1,29.12,North,1,2.7,2.7,28,0.00,,,0.00,VWS V14.01,2013-03-21 13:33:00,
2013-03-21 09:38:00,30.7,1.5,29.12,NNE,19,0.0,3.1,28,0.00,,,0.00,VWS V14.01,2013-03-21 13:38:00,
2013-03-21 09:43:00,30.2,1.0,29.12,North,349,2.2,2.2,28,0.00,,,0.00,VWS V14.01,2013-03-21 13:43:00,
2013-03-21 09:48:00,30.2,1.0,29.12,NE,35,0.0,0.0,28,0.00,,,0.00,VWS V14.01,2013-03-21 13:48:00,
2013-03-21 09:53:00,30.4,1.2,29.12,North,6,3.6,3.6,28,0.00,,,0.00,VWS V14.01,2013-03-21 13:53:00,
2013-03-21 09:58:00,30.4,1.2,29.12,North,353,2.2,2.2,28,0.00,,,0.00,VWS V14.01,2013-03-21 13:58:00,
2013-03-21 10:03:00,30.7,1.5,29.12,NE,56,2.2,2.2,28,0.00,,,0.00,VWS V14.01,2013-03-21 14:03:00,
2013-03-21 10:08:00,30.7,-0.9,29.12,ENE,71,3.1,3.1,25,0.00,,,0.00,VWS V14.01,2013-03-21 14:08:00,
2013-03-21 10:13:00,30.4,-1.2,29.12,NNE,27,2.2,4.9,25,0.00,,,0.00,VWS V14.01,2013-03-21 14:13:00,
2013-03-21 10:18:00,30.7,-0.9,29.12,NNW,330,3.1,3.1,25,0.00,,,0.00,VWS V14.01,2013-03-21 14:18:00,
2013-03-21 10:23:00,31.6,2.3,29.12,WNW,303,10.1,10.1,28,0.00,,,0.00,VWS V14.01,2013-03-21 14:23:00,
2013-03-21 10:28:00,30.9,-0.8,29.12,East,94,2.7,3.1,25,0.00,,,0.00,VWS V14.01,2013-03-21 14:28:00,
2013-03-21 10:33:00,30.9,-0.8,29.12,NNW,345,8.7,8.7,25,0.00,,,0.00,VWS V14.01,2013-03-21 14:33:00,
2013-03-21 10:38:00,30.6,-1.1,29.12,WNW,295,2.2,5.8,25,0.00,,,0.00,VWS V14.01,2013-03-21 14:38:00,
2013-03-21 10:43:00,30.7,-0.9,29.12,NNW,343,3.1,3.1,25,0.00,,,0.00,VWS V14.01,2013-03-21 14:43:00,
2013-03-21 10:48:00,31.5,-0.3,29.12,NNW,342,7.6,7.6,25,0.00,,,0.00,VWS V14.01,2013-03-21 14:48:00,
2013-03-21 10:53:00,31.8,0.0,29.12,NE,42,2.7,2.7,25,0.00,,,0.00,VWS V14.01,2013-03-21 14:53:00,
2013-03-21 10:58:00,31.1,-0.6,29.12,North,0,3.1,3.6,25,0.00,,,0.00,VWS V14.01,2013-03-21 14:58:00,
2013-03-21 11:03:00,30.2,-1.4,29.12,ENE,61,4.9,4.9,25,0.00,,,0.00,VWS V14.01,2013-03-21 15:03:00,
2013-03-21 11:08:00,30.4,1.2,29.12,NE,49,3.1,3.1,28,0.00,,,0.00,VWS V14.01,2013-03-21 15:08:00,
2013-03-21 11:13:00,30.2,1.0,29.12,NW,325,0.0,2.7,28,0.00,,,0.00,VWS V14.01,2013-03-21 15:13:00,
2013-03-21 11:18:00,31.3,3.5,29.12,NNW,342,2.2,2.7,30,0.00,,,0.00,VWS V14.01,2013-03-21 15:18:00,
2013-03-21 11:23:00,31.1,1.8,29.12,NNE,24,2.2,2.2,28,0.00,,,0.00,VWS V14.01,2013-03-21 15:23:00,
2013-03-21 11:28:00,30.2,1.0,29.12,NNW,328,5.8,5.8,28,0.00,,,0.00,VWS V14.01,2013-03-21 15:28:00,
2013-03-21 11:33:00,30.6,-1.1,29.12,NE,51,0.0,2.2,25,0.00,,,0.00,VWS V14.01,2013-03-21 15:33:00,
2013-03-21 11:38:00,31.5,-0.3,29.12,NE,38,2.2,2.7,25,0.00,,,0.00,VWS V14.01,2013-03-21 15:38:00,
2013-03-21 11:43:00,31.1,-0.6,29.12,NE,41,3.1,4.0,25,0.00,,,0.00,VWS V14.01,2013-03-21 15:43:00,
2013-03-21 11:48:00,30.9,1.7,29.12,NNW,341,2.7,2.7,28,0.00,,,0.00,VWS V14.01,2013-03-21 15:48:00,
2013-03-21 11:53:00,31.5,2.1,29.12,North,353,7.2,8.1,28,0.00,,,0.00,VWS V14.01,2013-03-21 15:53:00,
2013-03-21 11:58:00,31.6,-0.1,29.12,NNE,19,2.2,2.7,25,0.00,,,0.00,VWS V14.01,2013-03-21 15:58:00,
2013-03-21 12:03:00,31.6,-0.1,29.12,NW,314,2.7,2.7,25,0.00,,,0.00,VWS V14.01,2013-03-21 16:03:00,
2013-03-21 12:08:00,31.3,-0.4,29.12,NE,47,0.0,3.6,25,0.00,,,0.00,VWS V14.01,2013-03-21 16:08:00,
2013-03-21 12:13:00,32.4,0.5,29.12,NNE,21,0.0,0.0,25,0.00,,,0.00,VWS V14.01,2013-03-21 16:13:00,
2013-03-21 12:18:00,32.7,0.8,29.12,NNW,345,0.0,2.7,25,0.00,,,0.00,VWS V14.01,2013-03-21 16:18:00,
2013-03-21 12:23:00,32.4,0.5,29.12,NNE,15,2.7,2.7,25,0.00,,,0.00,VWS V14.01,2013-03-21 16:23:00,
2013-03-21 12:28:00,31.8,0.0,29.12,ENE,70,2.7,4.9,25,0.00,,,0.00,VWS V14.01,2013-03-21 16:28:00,
2013-03-21 12:33:00,31.8,0.0,29.12,ENE,69,2.7,2.7,25,0.00,,,0.00,VWS V14.01,2013-03-21 16:33:00,
2013-03-21 12:38:00,31.6,-0.1,29.12,ENE,58,3.6,4.0,25,0.00,,,0.00,VWS V14.01,2013-03-21 16:38:00,
2013-03-21 12:43:00,31.8,-1.8,29.12,North,3,3.6,4.0,23,0.00,,,0.00,VWS V14.01,2013-03-21 16:43:00,
2013-03-21 12:48:00,33.1,-0.7,29.09,North,350,4.9,4.9,23,0.00,,,0.00,VWS V14.01,2013-03-21 16:48:00,
2013-03-21 12:53:00,33.3,-0.5,29.09,NNW,328,3.6,5.8,23,0.00,,,0.00,VWS V14.01,2013-03-21 16:53:00,
2013-03-21 12:58:00,32.5,-1.1,29.09,NE,50,2.7,3.6,23,0.00,,,0.00,VWS V14.01,2013-03-21 16:58:00,
2013-03-21 13:03:00,33.1,1.1,29.09,North,353,8.3,8.3,25,0.00,,,0.00,VWS V14.01,2013-03-21 17:03:00,
2013-03-21 13:08:00,33.1,-0.7,29.09,NNW,332,0.0,2.7,23,0.00,,,0.00,VWS V14.01,2013-03-21 17:08:00,
2013-03-21 13:13:00,32.9,-0.8,29.09,NW,324,3.6,4.0,23,0.00,,,0.00,VWS V14.01,2013-03-21 17:13:00,
2013-03-21 13:18:00,32.5,0.6,29.09,NNW,348,0.0,2.2,25,0.00,,,0.00,VWS V14.01,2013-03-21 17:18:00,
2013-03-21 13:23:00,32.7,0.8,29.09,NNW,344,3.6,3.6,25,0.00,,,0.00,VWS V14.01,2013-03-21 17:23:00,
2013-03-21 13:28:00,33.4,1.4,29.09,NE,44,3.1,3.6,25,0.00,,,0.00,VWS V14.01,2013-03-21 17:28:00,
2013-03-21 13:33:00,34.0,1.9,29.09,North,5,2.7,5.8,25,0.00,,,0.00,VWS V14.01,2013-03-21 17:33:00,
2013-03-21 13:38:00,33.6,-0.2,29.09,NE,38,2.2,3.6,23,0.00,,,0.00,VWS V14.01,2013-03-21 17:38:00,
2013-03-21 13:43:00,32.7,-1.0,29.09,West,259,3.6,5.4,23,0.00,,,0.00,VWS V14.01,2013-03-21 17:43:00,
2013-03-21 13:48:00,32.2,-1.4,29.09,North,353,0.0,2.7,23,0.00,,,0.00,VWS V14.01,2013-03-21 17:48:00,
2013-03-21 13:53:00,32.5,-1.1,29.09,NW,309,4.9,7.6,23,0.00,,,0.00,VWS V14.01,2013-03-21 17:53:00,
2013-03-21 13:58:00,32.9,-0.8,29.09,North,1,0.0,2.7,23,0.00,,,0.00,VWS V14.01,2013-03-21 17:58:00,
2013-03-21 14:03:00,33.3,-0.5,29.09,North,10,4.9,10.1,23,0.00,,,0.00,VWS V14.01,2013-03-21 18:03:00,
2013-03-21 14:08:00,32.5,-1.1,29.09,NNE,28,3.6,4.0,23,0.00,,,0.00,VWS V14.01,2013-03-21 18:08:00,
2013-03-21 14:13:00,33.3,-0.5,29.09,NNE,14,0.0,7.6,23,0.00,,,0.00,VWS V14.01,2013-03-21 18:13:00,
2013-03-21 14:19:00,32.7,-1.0,29.09,ENE,60,3.1,3.1,23,0.00,,,0.00,VWS V14.01,2013-03-21 18:19:00,
2013-03-21 14:24:00,33.1,-0.7,29.09,WNW,302,6.3,14.5,23,0.00,,,0.00,VWS V14.01,2013-03-21 18:24:00,
2013-03-21 14:29:00,33.3,-0.5,29.09,NNE,16,7.2,8.7,23,0.00,,,0.00,VWS V14.01,2013-03-21 18:29:00,
2013-03-21 14:34:00,33.6,-0.2,29.09,WNW,299,6.3,12.8,23,0.00,,,0.00,VWS V14.01,2013-03-21 18:34:00,
2013-03-21 14:39:00,34.3,-0.6,29.09,NNW,328,2.7,5.8,22,0.00,,,0.00,VWS V14.01,2013-03-21 18:39:00,
2013-03-21 14:44:00,33.6,-0.2,29.09,ENE,57,2.7,4.0,23,0.00,,,0.00,VWS V14.01,2013-03-21 18:44:00,
2013-03-21 14:49:00,33.1,-0.7,29.09,East,82,4.0,4.0,23,0.00,,,0.00,VWS V14.01,2013-03-21 18:49:00,
2013-03-21 14:54:00,33.4,-0.4,29.09,NNE,16,0.0,3.1,23,0.00,,,0.00,VWS V14.01,2013-03-21 18:54:00,
2013-03-21 14:58:00,33.3,-0.5,29.09,NNE,22,2.2,5.4,23,0.00,,,0.00,VWS V14.01,2013-03-21 18:58:00,
2013-03-21 15:03:00,33.3,-0.5,29.09,North,2,3.6,3.6,23,0.00,,,0.00,VWS V14.01,2013-03-21 19:03:00,
2013-03-21 15:08:00,33.6,-0.2,29.09,North,8,2.7,6.3,23,0.00,,,0.00,VWS V14.01,2013-03-21 19:08:00,
2013-03-21 15:14:00,33.4,-0.4,29.09,NNE,12,3.1,7.6,23,0.00,,,0.00,VWS V14.01,2013-03-21 19:14:00,
2013-03-21 15:19:00,32.7,-1.0,29.09,WNW,288,2.7,6.3,23,0.00,,,0.00,VWS V14.01,2013-03-21 19:19:00,
2013-03-21 15:24:00,32.7,-1.0,29.09,NNE,23,5.4,6.3,23,0.00,,,0.00,VWS V14.01,2013-03-21 19:24:00,
2013-03-21 15:29:00,32.7,-1.0,29.09,WNW,303,2.7,7.6,23,0.00,,,0.00,VWS V14.01,2013-03-21 19:29:00,
2013-03-21 15:34:00,33.8,-1.0,29.09,SW,233,8.1,8.1,22,0.00,,,0.00,VWS V14.01,2013-03-21 19:34:00,
2013-03-21 15:39:00,33.3,-0.5,29.09,NE,39,3.6,3.6,23,0.00,,,0.00,VWS V14.01,2013-03-21 19:39:00,
2013-03-21 15:44:00,33.3,-0.5,29.09,North,350,5.4,8.7,23,0.00,,,0.00,VWS V14.01,2013-03-21 19:44:00,
2013-03-21 15:49:00,33.3,-0.5,29.09,NE,46,2.7,3.1,23,0.00,,,0.00,VWS V14.01,2013-03-21 19:49:00,
2013-03-21 15:54:00,32.5,-1.1,29.09,NNW,331,4.0,8.1,23,0.00,,,0.00,VWS V14.01,2013-03-21 19:54:00,
2013-03-21 15:59:00,32.5,-1.1,29.09,NNE,12,2.7,2.7,23,0.00,,,0.00,VWS V14.01,2013-03-21 19:59:00,
2013-03-21 16:04:00,33.1,-0.7,29.09,NW,318,8.7,10.1,23,0.00,,,0.00,VWS V14.01,2013-03-21 20:04:00,
2013-03-21 16:09:00,33.1,-0.7,29.09,NNW,332,0.0,4.9,23,0.00,,,0.00,VWS V14.01,2013-03-21 20:09:00,
2013-03-21 16:14:00,33.1,-0.7,29.09,North,0,3.1,9.6,23,0.00,,,0.00,VWS V14.01,2013-03-21 20:14:00,
2013-03-21 16:19:00,32.9,-0.8,29.09,NW,317,8.3,8.3,23,0.00,,,0.00,VWS V14.01,2013-03-21 20:19:00,
2013-03-21 16:24:00,32.7,-1.0,29.09,WNW,297,3.1,3.1,23,0.00,,,0.00,VWS V14.01,2013-03-21 20:24:00,
2013-03-21 16:29:00,32.9,-0.8,29.09,NNW,328,3.1,6.3,23,0.00,,,0.00,VWS V14.01,2013-03-21 20:29:00,
2013-03-21 16:34:00,32.4,-1.3,29.09,NNW,343,4.0,4.0,23,0.00,,,0.00,VWS V14.01,2013-03-21 20:34:00,
2013-03-21 16:39:00,32.5,-1.1,29.09,NNW,346,3.1,4.0,23,0.00,,,0.00,VWS V14.01,2013-03-21 20:39:00,
2013-03-21 16:44:00,33.1,-0.7,29.09,SW,233,5.8,5.8,23,0.00,,,0.00,VWS V14.01,2013-03-21 20:44:00,
2013-03-21 16:49:00,33.8,-1.0,29.09,NNE,28,6.3,7.6,22,0.00,,,0.00,VWS V14.01,2013-03-21 20:49:00,
2013-03-21 16:54:00,34.0,-0.9,29.09,North,1,8.3,11.0,22,0.00,,,0.00,VWS V14.01,2013-03-21 20:54:00,
2013-03-21 16:59:00,33.8,-1.0,29.09,North,0,2.7,8.1,22,0.00,,,0.00,VWS V14.01,2013-03-21 20:59:00,
2013-03-21 17:04:00,33.1,-0.7,29.09,NE,45,2.2,6.3,23,0.00,,,0.00,VWS V14.01,2013-03-21 21:04:00,
2013-03-21 17:09:00,32.7,-1.0,29.09,North,3,0.0,3.6,23,0.00,,,0.00,VWS V14.01,2013-03-21 21:09:00,
2013-03-21 17:14:00,32.4,-4.2,29.09,NNW,329,2.2,5.8,20,0.00,,,0.00,VWS V14.01,2013-03-21 21:14:00,
2013-03-21 17:19:00,32.9,-3.8,29.09,West,269,7.6,8.7,20,0.00,,,0.00,VWS V14.01,2013-03-21 21:19:00,
2013-03-21 17:24:00,33.4,-0.4,29.09,WNW,301,2.2,5.4,23,0.00,,,0.00,VWS V14.01,2013-03-21 21:24:00,
2013-03-21 17:29:00,33.6,-3.2,29.09,WNW,302,6.7,6.7,20,0.00,,,0.00,VWS V14.01,2013-03-21 21:29:00,
2013-03-21 17:34:00,32.7,-3.9,29.09,ENE,69,4.9,11.0,20,0.00,,,0.00,VWS V14.01,2013-03-21 21:34:00,
2013-03-21 17:39:00,32.5,-4.1,29.09,North,11,2.7,15.4,20,0.00,,,0.00,VWS V14.01,2013-03-21 21:39:00,
2013-03-21 17:44:00,32.4,-4.2,29.09,NNW,339,3.6,8.7,20,0.00,,,0.00,VWS V14.01,2013-03-21 21:44:00,
2013-03-21 17:49:00,31.5,-5.0,29.12,ENE,60,2.7,4.0,20,0.00,,,0.00,VWS V14.01,2013-03-21 21:49:00,
2013-03-21 17:54:00,31.6,-4.8,29.12,WSW,251,4.0,4.0,20,0.00,,,0.00,VWS V14.01,2013-03-21 21:54:00,
2013-03-21 17:59:00,31.8,-4.7,29.12,NE,46,2.2,2.7,20,0.00,,,0.00,VWS V14.01,2013-03-21 21:59:00,
2013-03-21 18:04:00,31.5,-5.0,29.12,WNW,298,4.9,10.5,20,0.00,,,0.00,VWS V14.01,2013-03-21 22:04:00,
2013-03-21 18:09:00,31.3,-5.1,29.12,WSW,253,3.1,5.4,20,0.00,,,0.00,VWS V14.01,2013-03-21 22:09:00,
2013-03-21 18:14:00,31.1,-5.3,29.12,WSW,253,2.2,2.2,20,0.00,,,0.00,VWS V14.01,2013-03-21 22:14:00,
2013-03-21 18:19:00,30.9,-5.4,29.12,NNE,31,3.1,7.2,20,0.00,,,0.00,VWS V14.01,2013-03-21 22:19:00,
2013-03-21 18:24:00,30.7,-5.6,29.12,NNW,339,2.7,3.1,20,0.00,,,0.00,VWS V14.01,2013-03-21 22:24:00,
2013-03-21 18:29:00,30.7,-5.6,29.12,NNE,14,2.7,3.1,20,0.00,,,0.00,VWS V14.01,2013-03-21 22:29:00,
2013-03-21 18:34:00,30.7,-5.6,29.12,WSW,250,3.1,4.9,20,0.00,,,0.00,VWS V14.01,2013-03-21 22:34:00,
2013-03-21 18:39:00,30.9,-5.4,29.12,WNW,287,4.0,4.0,20,0.00,,,0.00,VWS V14.01,2013-03-21 22:39:00,
2013-03-21 18:44:00,31.1,-5.3,29.12,East,90,0.0,2.2,20,0.00,,,0.00,VWS V14.01,2013-03-21 22:44:00,
2013-03-21 18:49:00,30.9,-5.4,29.12,NNW,343,5.4,8.1,20,0.00,,,0.00,VWS V14.01,2013-03-21 22:49:00,
2013-03-21 18:54:00,30.7,-5.6,29.12,North,357,2.2,3.1,20,0.00,,,0.00,VWS V14.01,2013-03-21 22:54:00,
2013-03-21 18:59:00,30.6,-5.7,29.12,West,275,7.6,7.6,20,0.00,,,0.00,VWS V14.01,2013-03-21 22:59:00,
2013-03-21 19:04:00,30.4,-5.9,29.12,North,9,0.0,4.0,20,0.00,,,0.00,VWS V14.01,2013-03-21 23:04:00,
2013-03-21 19:09:00,30.2,-6.0,29.12,NNW,337,2.2,5.8,20,0.00,,,0.00,VWS V14.01,2013-03-21 23:09:00,
2013-03-21 19:14:00,30.2,-6.0,29.12,SSW,208,4.0,5.4,20,0.00,,,0.00,VWS V14.01,2013-03-21 23:14:00,
2013-03-21 19:19:00,30.0,-6.2,29.15,WNW,294,2.7,4.9,20,0.00,,,0.00,VWS V14.01,2013-03-21 23:19:00,
2013-03-21 19:24:00,29.8,-6.3,29.15,NE,39,5.4,5.4,20,0.00,,,0.00,VWS V14.01,2013-03-21 23:24:00,
2013-03-21 19:29:00,29.7,-6.5,29.15,NNE,14,0.0,0.0,20,0.00,,,0.00,VWS V14.01,2013-03-21 23:29:00,
2013-03-21 19:34:00,29.7,-6.5,29.15,NNW,340,0.0,2.7,20,0.00,,,0.00,VWS V14.01,2013-03-21 23:34:00,
2013-03-21 19:39:00,29.5,-6.6,29.15,NNW,340,3.6,6.3,20,0.00,,,0.00,VWS V14.01,2013-03-21 23:39:00,
2013-03-21 19:44:00,29.5,-6.6,29.15,NE,45,0.0,2.2,20,0.00,,,0.00,VWS V14.01,2013-03-21 23:44:00,
2013-03-21 19:49:00,29.5,-6.6,29.15,NE,39,0.0,0.0,20,0.00,,,0.00,VWS V14.01,2013-03-21 23:49:00,
2013-03-21 19:54:00,29.3,-6.8,29.15,NNW,333,0.0,0.0,20,0.00,,,0.00,VWS V14.01,2013-03-21 23:54:00,
2013-03-21 19:59:00,29.3,-6.8,29.15,NNW,336,2.7,2.7,20,0.00,,,0.00,VWS V14.01,2013-03-21 23:59:00,
2013-03-21 20:04:00,29.1,-6.9,29.15,NW,306,3.1,3.1,20,0.00,,,0.00,VWS V14.01,2013-03-22 00:04:00,
2013-03-21 20:09:00,29.1,-6.9,29.15,NNE,12,2.2,3.6,20,0.00,,,0.00,VWS V14.01,2013-03-22 00:09:00,
2013-03-21 20:14:00,28.9,-7.1,29.15,NNE,17,0.0,2.7,20,0.00,,,0.00,VWS V14.01,2013-03-22 00:14:00,
2013-03-21 20:19:00,28.9,-7.1,29.15,ENE,57,0.0,3.1,20,0.00,,,0.00,VWS V14.01,2013-03-22 00:19:00,
2013-03-21 20:24:00,28.9,-7.1,29.15,NNE,26,0.0,0.0,20,0.00,,,0.00,VWS V14.01,2013-03-22 00:24:00,
2013-03-21 20:29:00,28.8,-7.2,29.15,NNE,17,0.0,8.3,20,0.00,,,0.00,VWS V14.01,2013-03-22 00:29:00,
2013-03-21 20:34:00,28.8,-7.2,29.18,NNW,330,0.0,0.0,20,0.00,,,0.00,VWS V14.01,2013-03-22 00:34:00,
2013-03-21 20:39:00,28.6,-7.4,29.18,North,353,3.1,5.8,20,0.00,,,0.00,VWS V14.01,2013-03-22 00:39:00,
2013-03-21 20:44:00,28.6,-7.4,29.18,North,3,0.0,2.2,20,0.00,,,0.00,VWS V14.01,2013-03-22 00:44:00,
2013-03-21 20:49:00,28.6,-7.4,29.18,NNW,340,3.1,3.6,20,0.00,,,0.00,VWS V14.01,2013-03-22 00:49:00,
2013-03-21 20:54:00,28.6,-7.4,29.18,North,353,3.1,3.6,20,0.00,,,0.00,VWS V14.01,2013-03-22 00:54:00,
2013-03-21 20:59:00,28.4,-6.5,29.18,NW,323,0.0,0.0,21,0.00,,,0.00,VWS V14.01,2013-03-22 00:59:00,
2013-03-21 21:05:00,28.2,-4.8,29.18,NNW,343,4.5,4.5,23,0.00,,,0.00,VWS V14.01,2013-03-22 01:05:00,
2013-03-21 21:10:00,28.2,-4.8,29.18,NNW,345,5.8,5.8,23,0.00,,,0.00,VWS V14.01,2013-03-22 01:10:00,
2013-03-21 21:15:00,28.2,-4.8,29.18,NNW,345,0.0,0.0,23,0.00,,,0.00,VWS V14.01,2013-03-22 01:15:00,
2013-03-21 21:20:00,28.2,-4.8,29.18,North,7,0.0,3.1,23,0.00,,,0.00,VWS V14.01,2013-03-22 01:20:00,
2013-03-21 21:25:00,28.0,-5.0,29.18,NNW,348,0.0,2.2,23,0.00,,,0.00,VWS V14.01,2013-03-22 01:25:00,
2013-03-21 21:30:00,28.0,-5.0,29.18,NNW,332,0.0,0.0,23,0.00,,,0.00,VWS V14.01,2013-03-22 01:30:00,
2013-03-21 21:35:00,28.0,-5.0,29.18,North,3,0.0,0.0,23,0.00,,,0.00,VWS V14.01,2013-03-22 01:35:00,
2013-03-21 21:40:00,28.0,-5.0,29.18,NNW,343,0.0,0.0,23,0.00,,,0.00,VWS V14.01,2013-03-22 01:40:00,
2013-03-21 21:45:00,27.9,-5.1,29.18,NNW,329,4.0,4.0,23,0.00,,,0.00,VWS V14.01,2013-03-22 01:45:00,
2013-03-21 21:50:00,27.9,-5.1,29.18,NNW,338,0.0,0.0,23,0.00,,,0.00,VWS V14.01,2013-03-22 01:50:00,
2013-03-21 21:55:00,27.9,-5.1,29.18,NNW,336,3.6,4.0,23,0.00,,,0.00,VWS V14.01,2013-03-22 01:55:00,
2013-03-21 22:00:00,27.9,-5.1,29.18,NNW,343,2.2,2.2,23,0.00,,,0.00,VWS V14.01,2013-03-22 02:00:00,
2013-03-21 22:05:00,27.9,-5.1,29.18,NNW,344,0.0,0.0,23,0.00,,,0.00,VWS V14.01,2013-03-22 02:05:00,
2013-03-21 22:10:00,27.7,-5.3,29.18,NNW,341,3.1,3.1,23,0.00,,,0.00,VWS V14.01,2013-03-22 02:10:00,
2013-03-21 22:15:00,27.7,-5.3,29.18,North,353,3.6,7.6,23,0.00,,,0.00,VWS V14.01,2013-03-22 02:15:00,
2013-03-21 22:20:00,27.7,-5.3,29.18,NW,325,5.8,6.3,23,0.00,,,0.00,VWS V14.01,2013-03-22 02:20:00,
2013-03-21 22:25:00,27.7,-5.3,29.18,NNW,327,0.0,0.0,23,0.00,,,0.00,VWS V14.01,2013-03-22 02:25:00,
2013-03-21 22:30:00,27.5,-5.4,29.18,NNW,337,2.7,2.7,23,0.00,,,0.00,VWS V14.01,2013-03-22 02:30:00,
2013-03-21 22:35:00,27.5,-5.4,29.18,NNW,334,0.0,0.0,23,0.00,,,0.00,VWS V14.01,2013-03-22 02:35:00,
2013-03-21 22:40:00,27.5,-5.4,29.18,NNW,345,0.0,0.0,23,0.00,,,0.00,VWS V14.01,2013-03-22 02:40:00,
2013-03-21 22:45:00,27.5,-5.4,29.18,NNW,331,4.0,4.0,23,0.00,,,0.00,VWS V14.01,2013-03-22 02:45:00,
2013-03-21 22:50:00,27.5,-5.4,29.18,WNW,293,2.7,2.7,23,0.00,,,0.00,VWS V14.01,2013-03-22 02:50:00,
2013-03-21 22:55:00,27.5,-5.4,29.18,NNW,346,0.0,2.7,23,0.00,,,0.00,VWS V14.01,2013-03-22 02:55:00,
2013-03-21 23:00:00,27.5,-5.4,29.18,North,357,0.0,3.1,23,0.00,,,0.00,VWS V14.01,2013-03-22 03:00:00,
2013-03-21 23:05:00,27.7,-5.3,29.18,NNW,348,0.0,0.0,23,0.00,,,0.00,VWS V14.01,2013-03-22 03:05:00,
2013-03-21 23:10:00,27.7,-5.3,29.18,NNW,345,0.0,0.0,23,0.00,,,0.00,VWS V14.01,2013-03-22 03:10:00,
2013-03-21 23:15:00,27.9,-5.1,29.18,West,278,2.7,3.1,23,0.00,,,0.00,VWS V14.01,2013-03-22 03:15:00,
2013-03-21 23:20:00,27.7,-5.3,29.18,NNW,340,4.9,5.4,23,0.00,,,0.00,VWS V14.01,2013-03-22 03:20:00,
2013-03-21 23:25:00,27.7,-5.3,29.18,NNW,346,0.0,5.4,23,0.00,,,0.00,VWS V14.01,2013-03-22 03:25:00,
2013-03-21 23:30:00,27.5,-5.4,29.18,NW,310,4.0,5.4,23,0.00,,,0.00,VWS V14.01,2013-03-22 03:30:00,
2013-03-21 23:35:00,27.5,-5.4,29.18,NW,324,0.0,0.0,23,0.00,,,0.00,VWS V14.01,2013-03-22 03:35:00,
2013-03-21 23:40:00,27.3,-5.6,29.18,NNW,338,0.0,0.0,23,0.00,,,0.00,VWS V14.01,2013-03-22 03:40:00,
2013-03-21 23:45:00,27.1,-5.7,29.18,NNW,344,0.0,0.0,23,0.00,,,0.00,VWS V14.01,2013-03-22 03:45:00,
2013-03-21 23:50:00,27.1,-5.7,29.18,NNW,344,0.0,0.0,23,0.00,,,0.00,VWS V14.01,2013-03-22 03:50:00,
2013-03-21 23:55:00,27.0,-5.9,29.18,NNW,344,0.0,0.0,23,0.00,,,0.00,VWS V14.01,2013-03-22 03:55:00,